This demonstration page uses our WeatherBlox Daily Observations layout. Learn more.

Left ArrowRight Arrow

39.08367, -84.50855

Hourly Observations for January 9, 2015

Temp ( °F °C ) Dew Point ( °F °C ) Humidity (%) Winds ( mph kmh ) Pressure ( in mb ) Visibility ( mi km ) Precip ( " mm )
12:53 am 00:53 Cloudy 25 -3.9 3 -16.1 39 39 SW 21 33 30.07 1018 10 16.0934 0 0
1:53 am 01:53 Cloudy 25 -3.9 7 -13.9 46 46 SW 16 26 30.08 1019 10 16.0934 0 0
2:53 am 02:53 Cloudy 26 -3.3 7 -13.9 44 44 SW 21 33 30.09 1019 10 16.0934 0 0
3:53 am 03:53 Cloudy 26 -3.3 7 -13.9 44 44 WSW 18 30 30.1 1019 10 16.0934 0 0
4:53 am 04:53 Cloudy 26 -3.3 9 -12.8 48 48 WSW 14 22 30.13 1020 10 16.0934 0 0
5:53 am 05:53 Windy with Snow Likely 25 -3.9 13 -10.6 60 60 W 23 37 30.16 1021 7 11.26538 0 0.0254
6:17 am 06:17 Cloudy with Light Snow 22 -5.6 16 -8.9 78 78 WNW 13 20 30.21 1023 4 6.43736 0 0.0254
6:38 am 06:38 Cloudy with Light Snow 21 -6 14 -10 74 74 W 13 20 30.21 1023 7 11.26538 0 0
6:53 am 06:53 Cloudy 21 -6.1 12 -11.1 68 68 WNW 13 20 30.21 1023 9 14.48406 0 0.0254
7:53 am 07:53 Mostly Cloudy 16 -8.9 6 -14.4 65 65 WNW 12 19 30.27 1025 10 16.0934 0 0
8:53 am 08:53 Mostly Cloudy 16 -8.9 5 -15 62 62 WNW 12 19 30.33 1027 10 16.0934 0 0
9:53 am 09:53 Mostly Cloudy 17 -8.3 4 -15.6 56 56 WNW 10 17 30.36 1028 10 16.0934 0 0
10:53 am 10:53 Mostly Cloudy 17 -8.3 3 -16.1 54 54 W 15 24 30.37 1029 10 16.0934 0 0
11:53 am 11:53 Cloudy 17 -8.3 5 -15 59 59 W 18 30 30.37 1028 10 16.0934 0 0.0254
12:53 pm 12:53 Partly Cloudy 19 -7.2 1 -17.2 45 45 W 16 26 30.35 1028 10 16.0934 0 0
1:53 pm 13:53 Partly Cloudy 19 -7.2 1 -17.2 45 45 WNW 13 20 30.35 1028 10 16.0934 0 0
2:53 pm 14:53 Mostly Sunny 20 -6.7 0 -17.8 41 41 WNW 18 30 30.36 1028 10 16.0934 0 0
3:53 pm 15:53 Sunny 21 -6.1 -1 -18.3 38 38 W 14 22 30.37 1028 10 16.0934 0 0
4:53 pm 16:53 Sunny 20 -6.7 0 -17.8 41 41 W 13 20 30.37 1029 10 16.0934 0 0
5:53 pm 17:53 Clear 18 -7.8 -2 -18.9 41 41 W 14 22 30.4 1030 10 16.0934 0 0
6:53 pm 18:53 Clear 16 -8.9 -1 -18.3 47 47 NNW 9 15 30.45 1031 10 16.0934 0 0
7:53 pm 19:53 Clear 14 -10 -2 -18.9 49 49 W 12 19 30.49 1032 10 16.0934 0 0
8:53 pm 20:53 Clear 12 -11.1 -2 -18.9 53 53 WNW 12 19 30.53 1034 10 16.0934 0 0
9:53 pm 21:53 Partly Cloudy 11 -11.7 -2 -18.9 55 55 WNW 7 11 30.54 1034 10 16.0934 0 0
10:53 pm 22:53 Mostly Clear 11 -11.7 0 -17.8 61 61 WNW 10 17 30.55 1035 10 16.0934 0 0
11:53 pm 23:53 Clear 9 -12.8 -1 -18.3 64 64 VRB 6 9 30.56 1035 10 16.0934 0 0

Powered by AerisWeather